TimeHST,TemperatureF,Dew PointF,Humidity,Sea Level PressureIn,VisibilityMPH,Wind Direction,Wind SpeedMPH,Gust SpeedMPH,PrecipitationIn,Events,Conditions,WindDirDegrees,DateUTC
1:53 AM,70.0,55.0,59,30.17,10.0,NNE,17.3,25.3,N/A,,Overcast,30,2013-02-04 11:53:00
2:53 AM,70.0,55.9,61,30.16,10.0,NE,18.4,27.6,N/A,,Overcast,40,2013-02-04 12:53:00
3:53 AM,70.0,57.0,63,30.15,10.0,NE,19.6,-,N/A,,Overcast,40,2013-02-04 13:53:00
4:53 AM,70.0,55.9,61,30.16,10.0,NE,15.0,24.2,N/A,,Overcast,40,2013-02-04 14:53:00
5:53 AM,70.0,55.9,61,30.17,10.0,NNE,13.8,-,N/A,,Overcast,30,2013-02-04 15:53:00
6:53 AM,70.0,55.0,59,30.18,10.0,NNE,17.3,25.3,N/A,,Overcast,30,2013-02-04 16:53:00
7:53 AM,71.1,55.9,59,30.19,10.0,NNE,21.9,26.5,N/A,,Overcast,30,2013-02-04 17:53:00
8:33 AM,71.6,55.4,57,30.19,10.0,NE,20.7,27.6,N/A,,Overcast,40,2013-02-04 18:33:00
8:53 AM,72.0,57.9,61,30.19,10.0,NNE,19.6,-,N/A,,Overcast,30,2013-02-04 18:53:00
9:53 AM,72.0,59.0,64,30.21,10.0,NE,20.7,-,N/A,,Overcast,40,2013-02-04 19:53:00
10:37 AM,73.4,60.8,65,30.21,10.0,NE,16.1,-,N/A,,Overcast,50,2013-02-04 20:37:00
10:53 AM,75.0,60.1,60,30.21,10.0,NE,26.5,-,N/A,,Overcast,40,2013-02-04 20:53:00
11:53 AM,75.9,59.0,56,30.19,10.0,NNE,20.7,25.3,N/A,,Partly Cloudy,30,2013-02-04 21:53:00
12:53 PM,75.0,59.0,57,30.17,10.0,NNE,21.9,28.8,N/A,,Scattered Clouds,30,2013-02-04 22:53:00
1:53 PM,75.9,59.0,56,30.14,10.0,NE,23.0,-,N/A,,Mostly Cloudy,40,2013-02-04 23:53:00
2:53 PM,73.0,59.0,61,30.12,10.0,NNE,23.0,-,N/A,,Mostly Cloudy,30,2013-02-05 00:53:00
3:53 PM,73.0,60.1,64,30.10,10.0,NNE,20.7,-,N/A,,Scattered Clouds,30,2013-02-05 01:53:00
4:53 PM,72.0,60.1,66,30.11,10.0,NE,23.0,-,N/A,,Mostly Cloudy,40,2013-02-05 02:53:00
5:53 PM,72.0,61.0,68,30.12,10.0,NE,23.0,-,N/A,,Overcast,40,2013-02-05 03:53:00
6:53 PM,69.1,62.1,78,30.12,7.0,NE,18.4,-,0.00,Rain,Light Rain,40,2013-02-05 04:53:00
7:53 PM,69.8,62.6,78,30.13,8.0,NE,17.3,26.5,0.00,Rain,Light Rain,50,2013-02-05 05:53:00
8:53 PM,69.8,62.1,76,30.14,10.0,NE,20.7,32.2,0.00,,Overcast,50,2013-02-05 06:53:00
9:15 PM,71.6,62.6,73,30.16,10.0,NE,21.9,-,N/A,,Overcast,50,2013-02-05 07:15:00
9:24 PM,69.8,62.6,78,30.16,10.0,NE,21.9,-,N/A,,Overcast,40,2013-02-05 07:24:00
9:53 PM,69.8,63.0,79,30.16,10.0,NE,20.7,-,N/A,,Overcast,40,2013-02-05 07:53:00
10:53 PM,71.6,63.0,74,30.15,10.0,ENE,19.6,26.5,N/A,,Mostly Cloudy,60,2013-02-05 08:53:00
11:53 PM,70.9,62.1,74,30.15,10.0,NE,18.4,-,N/A,,Mostly Cloudy,50,2013-02-05 09:53:00